DWEW6128 Weather Reports


Display with metric or nautical units.
time (UTC)temp
F
wind
direction
speed
MPH
gust
MPH
rain 1hr
in
rain 24hr
in
rain mn
in
humidity
%
barometer
mb
20220522011143 66 192 2.0 3.0 0.00 0.00 0.00 74 1014.0
20220522010146 66 220 1.0 2.0 0.00 0.00 0.00 72 1014.1
20220522005144 66 227 2.0 3.0 0.00 0.00 0.00 72 1014.2
20220522004145 66 239 2.0 3.0 0.00 0.00 0.00 73 1014.3
20220522003144 66 222 1.0 3.0 0.00 0.00 0.00 73 1014.3
20220522002143 65 195 2.0 3.0 0.00 0.00 0.00 73 1014.3
20220522001143 65 188 3.0 5.0 0.00 0.00 0.00 74 1014.4
20220522000146 64 190 4.0 6.0 0.00 0.00 0.00 75 1014.5
20220521235144 64 167 2.0 3.0 0.00 0.00 0.00 75 1014.7
20220521234145 64 154 1.0 3.0 0.00 0.00 0.00 73 1014.9
20220521233144 65 188 3.0 3.0 0.00 0.00 0.00 73 1014.9
20220521232143 65 172 2.0 3.0 0.00 0.00 0.00 70 1015.0
20220521231144 67 176 1.0 3.0 0.00 0.00 0.00 67 1015.2
20220521230145 68 232 2.0 3.0 0.00 0.00 0.00 67 1015.5
20220521225143 68 250 2.0 3.0 0.00 0.00 0.00 67 1015.5
20220521224144 67 244 2.0 5.0 0.00 0.00 0.00 67 1015.5
20220521223143 67 247 3.0 6.0 0.00 0.00 0.00 67 1015.7
20220521222144 66 245 4.0 6.0 0.00 0.00 0.00 65 1015.8
20220521221119 66 231 4.0 6.0 0.00 0.00 0.00 64 1015.6
20220521220146 66 252 4.0 6.0 0.00 0.00 0.00 63 1015.6
20220521215143 66 237 3.0 5.0 0.00 0.00 0.00 63 1015.7
20220521214143 66 240 3.0 5.0 0.00 0.00 0.00 63 1016.1
20220521213144 66 247 3.0 6.0 0.00 0.00 0.00 64 1016.1
20220521212144 66 232 3.0 6.0 0.00 0.00 0.00 63 1016.0
20220521211143 67 246 3.0 5.0 0.00 0.00 0.00 61 1016.1
20220521210146 67 219 3.0 5.0 0.00 0.00 0.00 61 1015.9
20220521205143 67 198 3.0 3.0 0.00 0.00 0.00 60 1015.9
20220521204143 67 199 2.0 3.0 0.00 0.00 0.00 60 1016.0
20220521203143 68 165 1.0 3.0 0.00 0.00 0.00 59 1016.2
20220521202144 69 213 1.0 3.0 0.00 0.00 0.00 57 1016.3
20220521201145 69 204 2.0 3.0 0.00 0.00 0.00 56 1016.3
20220521200145 68 198 2.0 3.0 0.00 0.00 0.00 57 1016.2
20220521195143 69 179 2.0 3.0 0.00 0.00 0.00 56 1016.3
20220521194144 71 184 3.0 3.0 0.00 0.00 0.00 52 1016.4
20220521193144 72 178 1.0 2.0 0.00 0.00 0.00 51 1016.2
20220521192144 72 169 1.0 2.0 0.00 0.00 0.00 49 1016.1
20220521191144 72 117 1.0 3.0 0.00 0.00 0.00 47 1016.1
20220521190145 74 71 1.0 2.0 0.00 0.00 0.00 45 1016.1
20220521185143 75 52 1.0 3.0 0.00 0.00 0.00 41 1016.1
20220521184144 76 59 0.0 2.0 0.00 0.00 0.00 41 1016.0
20220521183143 77 337 0.0 1.0 0.00 0.00 0.00 40 1016.0
20220521182143 78 317 0.0 1.0 0.00 0.00 0.00 40 1016.0
20220521181143 79 315 0.0 1.0 0.00 0.00 0.00 39 1016.1
20220521180144 79 335 0.0 2.0 0.00 0.00 0.00 39 1016.1
20220521175143 80 334 1.0 3.0 0.00 0.00 0.00 37 1016.1
20220521174143 81 327 1.0 3.0 0.00 0.00 0.00 35 1016.0
20220521173143 82 330 1.0 2.0 0.00 0.00 0.00 34 1016.0
20220521172143 82 276 1.0 2.0 0.00 0.00 0.00 34 1016.0
20220521171143 83 259 1.0 3.0 0.00 0.00 0.00 33 1016.2
20220521170145 83 275 1.0 2.0 0.00 0.00 0.00 33 1016.2
20220521165145 82 296 1.0 2.0 0.00 0.00 0.00 35 1016.1
20220521164143 81 130 1.0 3.0 0.00 0.00 0.00 35 1016.2
20220521163143 82 324 0.0 3.0 0.00 0.00 0.00 34 1016.3
20220521162146 82 25 1.0 3.0 0.00 0.00 0.00 34 1016.5
20220521161143 82 310 1.0 3.0 0.00 0.00 0.00 34 1016.5
20220521160144 80 310 2.0 6.0 0.00 0.00 0.00 36 1016.5
20220521155143 81 76 1.0 9.0 0.00 0.00 0.00 34 1016.7
20220521154144 80 127 2.0 7.0 0.00 0.00 0.00 35 1016.9
20220521153143 81 35 3.0 7.0 0.00 0.00 0.00 35 1016.9
20220521152144 82 2 3.0 7.0 0.00 0.00 0.00 35 1016.9
20220521151144 83 17 3.0 8.0 0.00 0.00 0.00 33 1017.0
20220521150144 83 27 2.0 6.0 0.00 0.00 0.00 35 1016.9
20220521145143 82 348 2.0 10.0 0.00 0.00 0.00 37 1017.0
20220521144143 83 31 3.0 10.0 0.00 0.00 0.00 36 1017.0
20220521143143 84 357 2.0 5.0 0.00 0.00 0.00 35 1017.2
20220521142143 83 59 3.0 8.0 0.00 0.00 0.00 36 1017.2
20220521141144 84 29 2.0 5.0 0.00 0.00 0.00 36 1017.3
20220521140146 84 290 2.0 9.0 0.00 0.00 0.00 36 1017.5
20220521135144 84 307 2.0 7.0 0.00 0.00 0.00 36 1017.6
20220521134143 84 328 3.0 10.0 0.00 0.00 0.00 36 1017.6
20220521133142 84 50 2.0 8.0 0.00 0.00 0.00 37 1017.7
20220521132143 83 108 3.0 7.0 0.00 0.00 0.00 37 1017.7
20220521131142 83 50 2.0 7.0 0.00 0.00 0.00 38 1017.7
20220521130146 84 34 3.0 10.0 0.00 0.00 0.00 37 1017.7
20220521125144 83 357 3.0 7.0 0.00 0.00 0.00 38 1018.1
20220521124145 85 101 2.0 6.0 0.00 0.00 0.00 37 1018.1
20220521123143 84 347 3.0 10.0 0.00 0.00 0.00 38 1018.2
20220521122143 84 22 3.0 10.0 0.00 0.00 0.00 37 1018.4
20220521121142 85 335 2.0 6.0 0.00 0.00 0.00 36 1018.5
20220521120146 84 39 5.0 9.0 0.00 0.00 0.00 37 1018.5
20220521115142 84 37 3.0 9.0 0.00 0.00 0.00 37 1018.6
20220521114143 84 343 3.0 8.0 0.00 0.00 0.00 37 1018.8
20220521113144 84 334 3.0 8.0 0.00 0.00 0.00 38 1018.8
20220521112143 84 298 4.0 9.0 0.00 0.00 0.00 38 1018.9
20220521111144 84 352 3.0 8.0 0.00 0.00 0.00 38 1018.9
20220521110150 83 289 4.0 9.0 0.00 0.00 0.00 40 1019.0
20220521105144 83 315 3.0 10.0 0.00 0.00 0.00 40 1019.1
20220521104144 83 54 5.0 9.0 0.00 0.00 0.00 40 1019.2
20220521103143 82 308 3.0 10.0 0.00 0.00 0.00 42 1019.5
20220521102143 82 0 6.0 12.0 0.00 0.00 0.00 41 1019.5
20220521101143 83 301 5.0 12.0 0.00 0.00 0.00 41 1019.5
20220521100147 83 311 5.0 10.0 0.00 0.00 0.00 39 1019.5
20220521095143 83 338 4.0 9.0 0.00 0.00 0.00 40 1019.5
20220521094142 82 337 3.0 9.0 0.00 0.00 0.00 42 1019.6
20220521093144 82 344 3.0 9.0 0.00 0.00 0.00 43 1019.6
20220521092144 82 260 3.0 7.0 0.00 0.00 0.00 42 1019.7
20220521091143 82 289 3.0 9.0 0.00 0.00 0.00 43 1019.7
20220521090145 82 325 3.0 9.0 0.00 0.00 0.00 43 1019.7
20220521085144 81 287 3.0 7.0 0.00 0.00 0.00 44 1019.8
20220521083144 82 34 3.0 9.0 0.00 0.00 0.00 44 1019.8
20220521082144 82 335 3.0 7.0 0.00 0.00 0.00 44 1019.7
20220521081142 81 305 2.0 10.0 0.00 0.00 0.00 43 1019.8
20220521080145 81 299 3.0 10.0 0.00 0.00 0.00 42 1019.9
20220521075143 80 312 4.0 9.0 0.00 0.00 0.00 42 1019.9
20220521074145 79 321 3.0 8.0 0.00 0.00 0.00 42 1020.0
20220521073142 79 305 5.0 8.0 0.00 0.00 0.00 42 1020.0
20220521072143 79 301 2.0 6.0 0.00 0.00 0.00 43 1020.0
20220521071143 78 323 2.0 5.0 0.00 0.00 0.00 44 1020.0
20220521070145 76 291 2.0 5.0 0.00 0.00 0.00 44 1020.0
20220521065142 76 317 2.0 5.0 0.00 0.00 0.00 44 1020.1
20220521064143 77 297 1.0 3.0 0.00 0.00 0.00 44 1020.1
20220521063144 75 352 0.0 1.0 0.00 0.00 0.00 46 1020.1
20220521062142 74 288 1.0 2.0 0.00 0.00 0.00 47 1020.1
20220521061141 73 173 0.0 3.0 0.00 0.00 0.00 49 1020.0
20220521060146 72 209 1.0 3.0 0.00 0.00 0.00 52 1020.1
20220521055142 71 114 2.0 3.0 0.00 0.00 0.00 54 1020.2
20220521054143 69 116 1.0 3.0 0.00 0.00 0.00 56 1020.2
20220521053143 68 123 2.0 3.0 0.00 0.00 0.00 57 1020.3
20220521052143 67 126 1.0 3.0 0.00 0.00 0.00 59 1020.4
20220521051142 66 121 1.0 3.0 0.00 0.00 0.00 60 1020.4
20220521050144 65 77 1.0 3.0 0.00 0.00 0.00 62 1020.5
20220521045142 63 133 2.0 3.0 0.00 0.00 0.00 65 1020.4
20220521044142 61 163 2.0 3.0 0.00 0.00 0.00 67 1020.2
20220521043142 60 176 2.0 3.0 0.00 0.00 0.00 68 1020.2
20220521042142 59 157 2.0 3.0 0.00 0.00 0.00 69 1020.4
20220521041141 58 154 1.0 3.0 0.00 0.00 0.00 69 1020.3
20220521040145 58 180 3.0 5.0 0.00 0.00 0.00 68 1020.3
20220521035143 58 163 1.0 3.0 0.00 0.00 0.00 67 1020.4
20220521034142 58 167 1.0 3.0 0.00 0.00 0.00 66 1020.4
20220521033142 60 154 3.0 3.0 0.00 0.00 0.00 63 1020.4
20220521032143 61 192 3.0 3.0 0.00 0.00 0.00 60 1020.5
20220521031143 61 198 2.0 3.0 0.00 0.00 0.00 60 1020.7
20220521030144 62 213 2.0 3.0 0.00 0.00 0.00 58 1020.7
20220521025142 62 240 1.0 3.0 0.00 0.00 0.00 58 1020.7
20220521024142 62 250 2.0 3.0 0.00 0.00 0.00 58 1020.7
20220521023142 62 236 2.0 3.0 0.00 0.00 0.00 56 1020.8
20220521022142 63 236 1.0 2.0 0.00 0.00 0.00 56 1020.8
20220521021143 63 236 2.0 3.0 0.00 0.00 0.00 55 1020.8
20220521020144 63 234 1.0 3.0 0.00 0.00 0.00 55 1020.8
20220521015142 63 239 3.0 3.0 0.00 0.00 0.00 54 1020.7
20220521014142 63 238 2.0 3.0 0.00 0.00 0.00 54 1020.7
20220521013142 62 224 2.0 3.0 0.00 0.00 0.00 55 1020.7
20220521012142 61 206 3.0 5.0 0.00 0.00 0.00 55 1020.8